Temp
69 68 67 69 71 71 69 69 70 70 71 71 71 71 71 70 69 70 69 69 70 70 70 70 70 70 70 70 70 72 73 71 71 71 70 70 70 70 69 69 69 71
68 67 68 68 67 68 69 70 70 70 69 70 71 70 69 68 68 70 69 69 70 69 69 69 70 70 70 71 70 71 71 70 70 70 69 69 70 70 69 69 70 71
68 67 66 65 65 66 68 69 69 69 69 68 68 69 68 67 68 69 70 70 70 69 68 69 69 69 69 70 69 70 71 70 69 69 70 70 69 70 70 70 70 69
66 67 67 67 67 67 67 67 67 67 67 67 68 68 68 67 68 68 68 69 70 69 68 69 68 69 70 69 69 70 69 69 69 69 69 69 69 70 69 70 70 70
66 67 68 68 68 68 67 67 66 66 67 68 67 68 68 67 68 69 68 68 69 69 69 69 69 69 69 70 70 69 69 69 68 69 70 68 68 69 68 69 69 69
67 69 69 68 67 68 68 69 68 68 68 67 67 68 67 68 69 69 69 69 69 70 69 70 70 70 70 70 70 69 70 70 69 70 70 69 69 69 70 70 69 69
65 66 67 68 68 69 69 69 68 68 68 69 68 67 67 68 69 70 71 70 71 71 71 70 70 69 70 71 70 69 69 69 70 71 71 70 69 67 69 70 71 70
64 66 67 68 67 68 68 68 68 67 67 68 68 68 69 70 71 69 70 71 71 71 71 71 71 71 70 71 71 69 68 69 70 71 71 70 69 69 69 69 69 70
65 65 65 66 66 67 68 68 67 67 69 69 69 68 69 70 70 70 70 71 71 70 71 70 71 71 70 71 70 71 71 69 69 71 71 71 70 70 71 70 69 69
64 65 65 65 65 66 66 67 67 67 68 69 69 69 69 68 70 71 70 71 70 70 71 71 70 70 70 72 72 72 72 71 71 70 71 71 71 72 72 71 71 69
63 64 64 65 65 64 64 66 67 67 68 70 69 69 69 69 69 70 70 71 70 71 71 71 71 71 71 70 70 70 71 71 71 71 70 71 71 71 69 72 71 71
63 63 64 65 64 64 64 65 66 67 67 68 70 69 68 69 69 69 71 72 72 73 73 72 72 71 72 72 71 70 70 70 70 70 70 71 70 71 71 71 72 72
63 64 64 65 63 63 64 66 67 67 69 68 69 68 68 68 68 69 69 71 71 71 72 72 71 71 71 70 71 71 71 71 70 70 70 70 70 71 71 71 72 72
63 64 64 65 65 65 66 66 66 67 67 69 69 68 67 68 68 69 69 70 70 70 70 70 70 71 71 71 71 71 70 70 70 69 70 70 69 70 70 71 70 71
60 62 64 65 66 67 67 66 65 64 63 63 65 67 67 67 67 69 69 70 70 70 70 70 70 69 69 69 70 70 70 70 70 71 70 70 70 70 70 70 71 70
63 62 63 63 65 65 65 65 64 62 61 61 60 62 64 64 65 67 69 70 70 69 69 68 68 69 61 54 57 70 71 71 69 70 70 70 69 69 68 68 69 69
63 63 63 62 61 60 61 61 60 60 61 62 62 62 60 59 59 65 67 67 69 69 68 67 67 63 45 44 45 47 64 69 69 69 69 69 70 70 69 68 68 67
60 61 60 58 58 57 56 56 57 58 59 60 61 60 59 59 60 62 64 65 66 67 66 66 66 48 41 41 41 41 48 65 69 69 68 69 70 70 70 70 69 68
59 58 58 57 56 57 57 58 59 58 58 58 58 58 59 60 60 62 64 65 66 67 66 66 64 42 41 40 40 41 41 53 69 68 68 68 69 69 69 69 69 68
60 59 57 56 56 58 59 60 60 59 58 59 58 58 58 58 60 61 62 63 64 65 65 63 60 43 40 40 40 39 40 50 67 66 67 68 69 69 69 69 68 69
59 59 58 57 58 59 59 59 58 58 58 58 61 60 59 59 60 61 60 61 62 63 64 63 54 39 39 39 39 40 41 49 65 64 67 67 68 67 67 66 66 66
56 56 55 55 56 57 57 56 54 53 54 56 57 58 58 59 59 60 60 62 62 63 64 63 52 39 39 40 39 41 40 60 64 65 65 66 66 66 66 66 66 66
55 54 53 53 55 55 54 54 54 54 55 57 57 57 56 55 55 55 56 58 59 60 61 62 56 43 39 39 40 39 48 63 62 65 65 64 65 65 65 66 65 65
53 54 54 53 53 53 53 53 54 55 55 56 56 55 54 55 57 57 56 55 55 54 54 57 56 45 40 40 41 40 47 60 63 63 63 63 64 63 65 65 64 55
52 52 52 52 51 50 50 51 53 54 55 56 56 56 55 56 56 56 55 56 56 55 51 55 55 48 39 39 40 40 48 56 58 61 61 62 63 63 63 64 64 60
52 51 50 50 51 50 50 50 51 52 53 54 55 57 55 54 53 53 53 52 53 55 54 53 53 50 42 38 39 40 41 51 55 57 59 58 59 59 59 61 62 64
MSLP
1016.84 1017.04 1017.28 1017.52 1017.72 1017.96 1018.40 1018.72 1018.80 1018.92 1019.00 1019.12 1019.28 1019.44 1019.56 1019.76 1019.92 1020.04 1020.16 1020.28 1020.36 1020.48 1020.60 1020.64 1020.64 1020.68 1020.68 1020.72 1020.80 1020.76 1020.88 1021.12 1021.28 1021.40 1021.56 1021.64 1021.76 1021.92 1022.08 1022.12 1022.12 1022.08
1016.84 1017.12 1017.28 1017.60 1017.92 1018.20 1018.40 1018.52 1018.68 1018.80 1019.08 1019.20 1019.28 1019.48 1019.68 1019.84 1019.96 1019.96 1020.12 1020.28 1020.40 1020.52 1020.64 1020.76 1020.80 1020.80 1020.80 1020.80 1020.88 1020.92 1021.00 1021.16 1021.36 1021.48 1021.60 1021.68 1021.72 1021.88 1022.00 1022.08 1022.08 1022.12
1017.12 1017.32 1017.52 1017.76 1018.00 1018.28 1018.48 1018.60 1018.72 1018.88 1019.12 1019.36 1019.56 1019.64 1019.80 1019.92 1020.04 1020.04 1020.08 1020.20 1020.36 1020.60 1020.76 1020.88 1020.96 1021.00 1021.00 1021.00 1021.04 1021.04 1021.08 1021.24 1021.40 1021.52 1021.52 1021.68 1021.76 1021.84 1021.96 1022.04 1022.08 1022.28
1017.36 1017.36 1017.48 1017.68 1017.88 1018.20 1018.52 1018.84 1019.04 1019.16 1019.32 1019.56 1019.68 1019.76 1019.84 1020.04 1020.08 1020.20 1020.28 1020.32 1020.40 1020.64 1020.84 1020.92 1021.04 1021.12 1021.12 1021.12 1021.12 1021.16 1021.28 1021.32 1021.44 1021.52 1021.68 1021.76 1021.84 1021.88 1022.08 1022.08 1022.20 1022.28
1017.20 1017.36 1017.48 1017.72 1017.96 1018.24 1018.52 1018.84 1019.08 1019.24 1019.36 1019.48 1019.68 1019.80 1019.92 1020.08 1020.20 1020.28 1020.36 1020.48 1020.48 1020.64 1020.76 1020.88 1020.96 1021.08 1021.12 1021.12 1021.12 1021.28 1021.40 1021.48 1021.64 1021.56 1021.64 1021.84 1021.92 1021.96 1022.08 1022.12 1022.28 1022.44
1017.20 1017.28 1017.44 1017.76 1018.00 1018.20 1018.48 1018.72 1018.88 1019.08 1019.36 1019.52 1019.68 1019.80 1019.96 1020.04 1020.12 1020.24 1020.36 1020.48 1020.52 1020.60 1020.72 1020.76 1020.88 1020.96 1021.00 1021.12 1021.20 1021.32 1021.40 1021.48 1021.64 1021.60 1021.68 1021.88 1022.00 1022.00 1022.08 1022.16 1022.28 1022.44
1017.20 1017.36 1017.56 1017.72 1017.96 1018.12 1018.28 1018.56 1018.80 1019.00 1019.16 1019.32 1019.60 1019.88 1020.00 1020.08 1020.12 1020.20 1020.28 1020.36 1020.48 1020.60 1020.68 1020.80 1020.92 1021.04 1021.08 1021.12 1021.24 1021.44 1021.56 1021.60 1021.64 1021.60 1021.72 1021.88 1022.00 1022.24 1022.16 1022.20 1022.20 1022.36
1017.08 1017.28 1017.44 1017.64 1017.96 1018.16 1018.32 1018.60 1018.84 1019.04 1019.20 1019.36 1019.60 1019.84 1019.88 1019.96 1020.08 1020.24 1020.32 1020.40 1020.52 1020.68 1020.80 1020.92 1020.96 1021.04 1021.20 1021.20 1021.36 1021.56 1021.68 1021.76 1021.72 1021.72 1021.80 1021.92 1022.00 1022.16 1022.28 1022.28 1022.36 1022.44
1017.00 1017.32 1017.56 1017.80 1018.00 1018.20 1018.44 1018.64 1018.92 1019.08 1019.20 1019.36 1019.56 1019.80 1019.92 1019.92 1020.12 1020.28 1020.40 1020.48 1020.60 1020.72 1020.88 1021.04 1021.12 1021.24 1021.32 1021.36 1021.48 1021.56 1021.68 1021.84 1021.88 1021.84 1021.92 1021.96 1022.04 1022.16 1022.16 1022.24 1022.40 1022.56
1017.16 1017.40 1017.64 1017.84 1018.04 1018.20 1018.48 1018.72 1018.92 1019.16 1019.28 1019.40 1019.52 1019.68 1019.92 1020.12 1020.20 1020.32 1020.44 1020.56 1020.64 1020.76 1020.88 1021.04 1021.24 1021.40 1021.48 1021.44 1021.52 1021.64 1021.72 1021.88 1021.96 1022.00 1022.00 1022.00 1022.00 1022.08 1022.16 1022.24 1022.36 1022.60
1017.32 1017.56 1017.76 1017.92 1018.08 1018.32 1018.56 1018.76 1018.96 1019.20 1019.40 1019.44 1019.56 1019.76 1019.92 1020.16 1020.36 1020.40 1020.52 1020.60 1020.72 1020.68 1020.80 1021.00 1021.16 1021.32 1021.48 1021.68 1021.80 1021.84 1021.88 1022.00 1022.08 1022.12 1022.16 1022.16 1022.16 1022.20 1022.24 1022.20 1022.32 1022.44
1017.28 1017.60 1017.84 1017.92 1018.16 1018.44 1018.68 1018.84 1019.04 1019.28 1019.48 1019.56 1019.60 1019.80 1020.04 1020.20 1020.36 1020.48 1020.48 1020.60 1020.68 1020.64 1020.68 1020.88 1021.12 1021.32 1021.48 1021.64 1021.80 1021.96 1022.00 1022.08 1022.12 1022.16 1022.24 1022.28 1022.36 1022.36 1022.32 1022.32 1022.32 1022.44
1017.24 1017.52 1017.76 1017.96 1018.20 1018.48 1018.72 1018.92 1019.08 1019.28 1019.40 1019.64 1019.72 1019.88 1020.12 1020.28 1020.40 1020.52 1020.64 1020.60 1020.72 1020.72 1020.72 1020.84 1021.04 1021.28 1021.48 1021.72 1021.84 1021.92 1022.00 1022.08 1022.20 1022.24 1022.32 1022.36 1022.40 1022.40 1022.44 1022.48 1022.44 1022.52
1017.36 1017.60 1017.88 1018.04 1018.28 1018.52 1018.80 1019.04 1019.20 1019.36 1019.48 1019.64 1019.76 1020.00 1020.16 1020.36 1020.44 1020.48 1020.68 1020.72 1020.76 1020.84 1020.88 1020.88 1021.04 1021.20 1021.40 1021.60 1021.76 1021.92 1022.00 1022.08 1022.08 1022.20 1022.24 1022.36 1022.44 1022.44 1022.48 1022.52 1022.56 1022.60
1017.72 1017.84 1017.96 1018.12 1018.32 1018.52 1018.80 1019.08 1019.32 1019.52 1019.72 1019.88 1019.96 1020.04 1020.20 1020.36 1020.56 1020.52 1020.64 1020.80 1020.88 1020.92 1020.96 1020.96 1021.00 1021.16 1021.36 1021.56 1021.76 1021.92 1021.96 1022.04 1022.08 1022.08 1022.20 1022.32 1022.44 1022.48 1022.52 1022.52 1022.56 1022.60
1017.80 1018.04 1018.12 1018.24 1018.40 1018.64 1018.84 1019.04 1019.28 1019.48 1019.60 1019.80 1020.00 1020.16 1020.32 1020.60 1020.72 1020.60 1020.56 1020.68 1020.88 1021.04 1021.08 1021.08 1021.08 1021.16 1021.48 1021.72 1021.88 1021.88 1022.00 1022.08 1022.20 1022.24 1022.28 1022.32 1022.48 1022.60 1022.68 1022.68 1022.68 1022.72
1018.04 1018.28 1018.36 1018.68 1019.04 1019.12 1019.04 1019.04 1019.20 1019.44 1019.60 1019.80 1019.88 1020.08 1020.44 1020.84 1020.96 1020.40 1020.52 1020.76 1020.84 1021.00 1021.16 1021.20 1021.20 1021.44 1021.80 1022.00 1022.16 1022.36 1022.24 1022.20 1022.24 1022.40 1022.44 1022.44 1022.48 1022.56 1022.60 1022.72 1022.76 1022.88
1018.52 1018.68 1018.92 1019.16 1019.28 1019.28 1019.20 1019.48 1019.60 1019.88 1019.96 1020.12 1020.28 1020.52 1020.72 1021.00 1020.56 1019.88 1020.40 1020.80 1020.96 1021.08 1021.20 1021.28 1021.28 1021.76 1021.72 1021.96 1022.20 1022.36 1022.48 1022.24 1022.20 1022.28 1022.40 1022.36 1022.40 1022.40 1022.44 1022.48 1022.60 1022.76
1019.00 1019.16 1019.40 1019.52 1019.60 1019.88 1020.00 1019.76 1019.80 1020.00 1020.20 1020.32 1020.40 1020.48 1020.64 1020.52 1019.96 1020.20 1020.56 1020.84 1020.96 1021.04 1021.12 1021.20 1021.32 1021.92 1021.68 1021.88 1022.08 1022.24 1022.40 1022.36 1022.08 1022.16 1022.20 1022.20 1022.20 1022.20 1022.20 1022.32 1022.40 1022.52
1019.20 1019.48 1019.80 1020.04 1020.08 1020.08 1020.12 1020.20 1020.32 1020.60 1020.72 1020.80 1020.84 1020.84 1020.72 1020.64 1020.48 1020.80 1021.08 1021.16 1021.20 1021.12 1021.20 1021.36 1021.56 1022.12 1021.88 1022.08 1022.24 1022.32 1022.28 1022.20 1021.96 1022.08 1022.08 1022.08 1022.04 1022.00 1022.12 1022.20 1022.36 1022.40
1019.64 1019.76 1020.04 1020.20 1020.24 1020.24 1020.36 1020.52 1020.68 1020.80 1020.88 1020.92 1020.80 1020.80 1020.84 1020.88 1020.96 1021.12 1021.40 1021.48 1021.48 1021.44 1021.32 1021.36 1022.08 1022.56 1022.40 1022.52 1022.64 1022.68 1022.52 1022.20 1021.96 1022.00 1021.92 1021.92 1021.96 1022.00 1022.12 1022.28 1022.36 1022.44
1020.20 1020.32 1020.52 1020.60 1020.64 1020.68 1020.84 1021.12 1021.32 1021.36 1021.32 1021.28 1021.24 1021.20 1021.24 1021.28 1021.48 1021.52 1021.52 1021.56 1021.60 1021.48 1021.32 1021.36 1022.48 1022.64 1022.56 1022.68 1022.76 1022.76 1022.76 1022.20 1021.92 1021.92 1021.88 1021.92 1021.92 1021.96 1022.04 1022.08 1022.16 1022.28
1020.80 1020.84 1021.00 1021.04 1021.00 1021.08 1021.36 1021.52 1021.56 1021.56 1021.60 1021.44 1021.36 1021.48 1021.64 1021.88 1022.08 1022.20 1022.16 1022.00 1021.88 1021.76 1021.60 1021.60 1022.44 1023.04 1022.96 1022.92 1022.84 1022.88 1022.64 1022.04 1022.16 1021.96 1021.96 1021.96 1021.92 1021.96 1021.96 1021.92 1021.96 1022.04
1021.40 1021.28 1021.36 1021.48 1021.48 1021.60 1021.76 1021.80 1021.76 1021.76 1021.84 1021.76 1021.68 1021.80 1022.04 1022.24 1022.08 1022.16 1022.40 1022.52 1022.52 1022.52 1022.52 1022.20 1022.56 1023.36 1023.44 1023.24 1023.08 1023.04 1022.76 1022.20 1021.96 1021.92 1022.00 1022.04 1021.96 1022.00 1021.92 1021.88 1021.88 1022.24
1021.96 1021.92 1021.92 1022.04 1022.24 1022.44 1022.32 1022.12 1022.04 1022.00 1021.96 1021.84 1021.84 1021.92 1022.20 1022.24 1022.24 1022.24 1022.44 1022.52 1022.64 1022.80 1022.92 1022.64 1022.92 1023.40 1023.60 1023.44 1023.32 1023.16 1022.92 1022.56 1022.36 1022.04 1022.04 1021.96 1021.96 1021.92 1021.88 1021.88 1021.88 1022.04
1022.48 1022.44 1022.56 1022.56 1022.60 1022.64 1022.64 1022.68 1022.60 1022.40 1022.28 1022.16 1022.08 1021.92 1022.08 1022.32 1022.48 1022.52 1022.76 1023.04 1023.08 1023.00 1023.04 1023.12 1023.16 1023.36 1023.88 1023.72 1023.48 1023.36 1023.24 1022.96 1022.68 1022.44 1022.16 1022.24 1022.28 1022.32 1022.24 1022.04 1022.00 1021.88
Wind_Speed
8 6 7 6 6 6 7 6 6 7 5 5 6 4 4 4 5 5 5 4 4 5 3 3 2 2 2 2 2 2 2 2 2 2 3 3 3 5 5 5 4 4
8 7 5 5 4 5 5 7 7 7 6 4 4 4 3 4 4 4 5 6 5 5 4 3 2 2 2 2 2 2 2 3 3 2 3 4 3 5 5 6 6 3
6 6 7 7 6 8 7 5 5 4 4 4 3 3 3 2 4 3 4 5 6 5 5 4 3 2 2 2 2 2 2 3 3 2 2 3 3 3 4 5 4 4
5 6 7 7 6 7 6 5 4 3 4 4 4 3 3 3 4 4 4 4 5 5 5 4 4 3 3 3 3 2 3 3 3 3 3 3 2 3 4 3 4 4
7 6 6 6 5 6 6 6 6 5 5 5 5 5 4 4 5 5 4 4 4 5 4 5 4 4 3 3 3 4 3 3 3 3 3 3 2 3 3 4 5 5
6 6 7 7 6 7 6 7 7 7 6 6 5 4 4 4 5 5 6 6 4 5 5 4 4 3 3 4 3 3 3 3 3 4 5 4 4 3 3 3 5 5
8 7 7 7 7 7 7 7 6 6 6 6 6 5 4 5 5 6 6 6 6 5 5 4 4 4 3 3 4 4 3 3 4 4 5 4 4 4 4 4 4 5
8 7 7 7 7 7 6 6 6 5 6 6 7 5 5 5 5 5 5 6 6 6 5 4 4 4 3 3 4 4 4 2 3 3 4 5 4 5 4 3 4 6
8 7 7 8 8 7 6 6 5 5 6 7 7 6 4 4 5 5 6 6 6 5 5 4 4 4 2 3 3 3 4 3 2 2 3 4 5 4 5 5 5 5
7 7 8 8 7 6 7 6 5 5 5 6 6 6 5 3 4 5 5 5 5 6 6 5 5 4 3 2 3 3 3 4 3 3 3 3 4 4 4 4 6 5
7 7 7 7 6 5 6 6 6 5 5 6 6 6 5 4 3 4 5 5 5 6 6 6 5 4 4 3 2 2 3 3 3 3 3 3 3 3 3 4 4 5
8 7 7 7 7 6 6 6 6 6 5 4 4 6 5 4 4 3 4 4 4 5 6 6 5 4 4 4 3 3 3 2 2 3 3 3 3 3 3 2 3 4
8 8 7 7 7 7 6 6 7 7 6 6 5 5 5 4 4 4 2 4 3 4 5 6 5 5 4 3 3 3 3 3 3 2 2 2 2 2 3 3 3 3
7 7 7 7 8 8 8 7 6 7 7 6 5 5 4 3 3 4 3 2 4 2 3 4 5 5 4 3 3 2 2 2 3 3 3 2 2 2 2 2 2 3
7 7 7 9 9 9 9 7 6 5 6 5 5 5 3 3 2 3 5 3 2 3 3 3 3 4 3 3 3 2 2 2 3 3 3 3 3 2 2 2 3 2
8 7 6 7 8 8 8 7 5 4 5 5 5 4 4 2 2 3 3 3 3 3 2 2 2 2 4 4 3 1 2 1 1 2 3 3 3 2 2 1 1 0
7 6 6 7 6 5 5 6 6 5 6 6 5 4 1 1 6 5 4 2 2 3 3 2 2 4 9 7 5 4 2 2 3 3 2 3 3 3 3 3 3 2
6 7 6 6 6 5 4 5 4 4 3 3 3 3 4 6 5 6 3 2 1 1 1 2 3 6 9 9 6 4 1 2 3 3 4 4 4 4 3 3 4 3
6 7 7 6 5 5 4 3 3 3 2 3 3 2 3 3 4 4 3 2 2 3 2 2 3 5 9 8 8 7 6 3 3 4 4 5 5 5 4 4 3 3
8 9 9 6 5 5 5 5 5 5 4 3 1 2 2 2 4 4 4 3 1 1 2 3 3 5 7 7 7 7 6 4 2 3 3 3 3 3 2 2 2 2
8 9 8 7 6 6 6 8 7 7 7 5 4 4 4 5 5 6 5 4 4 2 3 3 4 7 9 7 6 4 4 3 2 2 2 3 3 1 0 0 1 2
9 9 8 7 7 7 8 7 8 7 6 4 4 5 6 7 6 5 4 4 3 1 2 6 6 6 7 6 5 5 4 1 1 1 1 1 2 1 1 1 2 3
8 9 8 7 7 9 8 7 6 6 5 3 5 6 7 8 7 6 5 4 4 5 6 6 7 6 5 4 3 1 2 1 1 0 1 2 2 1 2 2 2 3
8 8 9 8 8 9 7 6 5 5 6 4 6 6 7 6 5 6 6 6 7 7 7 6 6 9 9 4 1 2 2 1 1 1 2 2 3 2 2 3 2 2
8 9 8 8 8 7 6 7 7 5 5 5 7 7 7 6 5 6 7 7 7 7 9 8 6 8 12 10 5 3 3 3 2 1 2 3 3 3 3 3 3 1
8 9 9 8 8 7 7 6 4 4 6 6 5 6 7 7 6 7 8 7 6 6 7 8 7 7 11 12 10 7 6 3 2 2 3 3 3 4 5 5 5 4
Wind_Direction
156 154 150 157 154 143 149 155 160 163 164 159 163 155 146 125 139 139 126 126 123 123 124 127 134 145 142 147 150 161 142 134 128 140 167 182 176 175 181 182 190 206
159 154 134 118 108 122 148 162 162 163 163 160 144 132 115 130 136 140 136 131 124 115 114 112 108 116 137 151 152 163 145 142 134 137 158 173 161 170 172 178 186 170
141 131 131 144 151 155 160 163 157 153 145 130 121 130 127 121 135 129 130 131 123 120 115 112 112 114 133 145 157 157 146 142 129 133 150 143 152 164 160 174 176 171
143 152 157 152 148 150 144 143 130 120 121 139 142 127 126 129 129 131 126 125 122 121 119 121 122 124 129 128 135 120 116 110 104 128 125 119 124 134 139 154 157 169
161 155 149 141 137 131 136 141 147 151 150 136 128 129 130 134 137 139 137 130 126 127 126 124 126 121 125 118 120 119 116 110 122 139 125 111 111 125 130 148 153 154
157 152 151 148 148 147 151 156 156 148 142 143 133 127 125 138 144 148 149 143 139 134 131 127 122 109 105 107 105 92 103 106 111 123 114 111 112 117 129 143 148 149
152 150 150 149 153 160 157 155 150 145 145 134 130 132 142 147 149 153 153 146 141 140 137 132 124 118 105 107 102 96 86 92 104 105 108 107 114 117 127 139 140 138
150 151 153 154 156 159 150 148 145 140 136 139 139 138 154 148 150 149 148 145 137 134 129 124 125 116 115 111 110 106 95 78 95 101 98 102 108 112 124 125 132 134
144 145 148 154 156 154 152 147 136 136 145 147 143 143 144 146 146 150 147 145 137 133 131 125 119 114 104 113 106 107 103 93 75 76 88 102 103 110 122 128 130 130
138 145 153 157 154 148 145 139 136 135 143 143 140 140 143 127 138 146 145 144 137 134 134 132 125 119 117 102 107 105 108 108 102 102 97 88 97 113 126 137 134 133
137 150 155 152 140 132 133 134 134 133 140 143 139 135 131 136 137 144 144 152 151 148 142 138 137 136 131 119 107 92 95 100 104 104 105 98 95 100 112 119 132 133
143 146 151 141 131 126 130 127 124 125 124 114 129 130 126 133 142 153 155 154 161 151 140 136 137 138 140 136 134 139 132 115 115 121 119 118 112 111 104 96 110 123
138 140 146 139 126 119 119 122 121 122 122 116 121 127 132 142 145 143 139 144 146 154 146 142 139 139 134 136 146 154 153 144 138 135 132 121 118 113 114 103 110 117
117 124 124 113 110 109 105 101 100 99 96 99 109 113 120 122 137 142 127 143 130 129 116 126 134 136 133 138 149 160 161 160 151 149 144 139 129 130 123 135 133 140
87 95 106 113 116 115 110 105 97 92 94 91 89 89 90 113 131 143 136 135 129 134 135 128 128 125 132 145 155 161 173 174 177 170 164 162 170 169 169 170 164 161
107 105 104 106 110 108 107 107 98 88 90 100 97 97 82 57 153 153 137 143 150 144 143 148 126 126 104 109 21 18 173 167 174 185 177 175 177 177 180 214 227 17
103 103 93 85 75 80 85 68 67 48 56 53 52 50 59 167 234 139 109 131 171 174 167 160 111 82 86 85 83 20 328 190 185 180 191 191 196 197 198 187 189 173
81 85 80 75 72 60 67 88 81 71 58 78 108 143 190 217 217 98 106 137 153 147 126 124 120 100 107 108 110 115 4 227 198 195 192 200 204 205 199 196 186 184
84 76 71 70 76 78 46 53 75 90 96 129 145 155 195 226 94 109 129 140 149 151 151 137 104 102 120 124 127 139 150 204 199 204 211 212 208 202 195 190 187 191
85 83 80 73 67 83 95 89 95 81 73 62 70 128 110 62 74 72 62 59 42 69 93 83 85 85 102 112 123 129 144 178 190 196 224 235 241 236 221 208 207 250
66 70 71 67 66 74 76 76 68 65 59 59 71 66 69 66 70 80 74 75 68 75 100 91 64 75 87 98 104 118 146 194 171 194 222 242 254 263 300 2 305 285
59 66 59 59 62 61 61 65 65 57 55 54 65 67 64 71 67 65 71 72 64 58 97 85 77 80 91 101 122 143 186 216 169 201 232 256 275 280 257 219 228 246
53 64 60 55 60 65 61 58 61 56 51 47 76 66 62 57 60 62 55 55 52 41 33 60 69 56 72 83 97 78 280 60 68 286 298 273 280 297 276 260 244 245
42 52 57 54 55 59 63 64 67 71 64 55 74 72 66 59 73 74 60 49 46 46 36 50 59 48 33 30 32 20 350 351 1 334 321 315 309 305 295 289 265 217
40 44 47 50 51 42 34 42 42 55 70 69 71 73 69 67 61 72 64 54 47 52 47 55 54 51 32 26 13 5 353 19 349 314 286 293 304 302 315 308 319 219
41 46 44 43 43 40 40 41 31 35 35 47 54 69 76 67 49 53 57 51 35 41 50 44 37 37 28 25 32 20 352 350 19 329 315 315 312 310 310 314 309 313